Location: Spring Creek
(38.2870°N, 100.2160°W)
Time: 03:50:18
(UTC+00:00)

Cosmos 2297 Rocket - Pass Details

Date: 03 October 2021
Orbit: 841 x 842 km, 71.0° (Epoch: 19 October)

Event Time Altitude Azimuth Distance (km) Brightness Sun altitude
Rises 03:36:44 0° 332° (NNW) 3,402 6.0 -37.8°
Reaches altitude 10° 03:39:14 10° 327° (NNW) 2,464 5.2 -38.3°
Enters shadow 03:41:50 27° 315° (NW) 1,570 4.0 -38.7°
